Location: Newark
(40.7360°N, 74.1730°W)
Time: 08:06:25
(UTC-04:00)

ISS - All Passes

Search period start: 23 August 2017 00:00
Search period end: 02 September 2017 00:00
Orbit: 401 x 408 km, 51.6° (Epoch: 23 August)

Date Brightness Start Highest point End Pass type
(mag) Time Alt. Az. Time Alt. Az. Time Alt. Az.
23 Aug - 09:24:43 10° SW 09:27:56 55° SE 09:31:10 10° ENE daylight
23 Aug - 11:01:52 10° W 11:04:36 24° NNW 11:07:20 10° NNE daylight
23 Aug - 12:40:29 10° NNW 12:41:59 12° N 12:43:30 10° NNE daylight
23 Aug - 14:17:07 10° NNW 14:19:29 18° NNE 14:21:50 10° ENE daylight
23 Aug - 15:53:06 10° NW 15:56:22 81° NE 15:59:37 10° SE daylight
23 Aug - 17:31:38 10° WSW 17:32:23 11° SW 17:33:08 10° SW daylight
24 Aug - 08:32:57 10° SSW 08:35:49 28° SE 08:38:40 10° ENE daylight
24 Aug - 10:09:10 10° W 10:12:13 35° NNW 10:15:17 10° NE daylight
24 Aug - 11:47:40 10° NW 11:49:26 14° N 11:51:12 10° NNE daylight
24 Aug - 13:25:01 10° NNW 13:26:58 15° NNE 13:28:53 10° NE daylight
24 Aug - 15:00:55 10° NW 15:04:05 44° NNE 15:07:14 10° ESE daylight
24 Aug - 16:37:51 10° W 16:40:22 20° SW 16:42:52 10° S daylight
25 Aug - 07:41:49 10° SSE 07:43:44 15° SE 07:45:40 10° E daylight
25 Aug - 09:16:38 10° WSW 09:19:53 61° NNW 09:23:09 10° NE daylight
25 Aug - 10:54:43 10° WNW 10:56:53 16° NNW 10:59:04 10° NNE daylight
25 Aug - 12:32:48 10° NNW 12:34:24 13° N 12:35:59 10° NE daylight
25 Aug - 14:08:49 10° NW 14:11:43 28° NNE 14:14:35 10° E daylight
25 Aug - 15:45:10 10° WNW 15:48:16 39° SW 15:51:19 10° SSE daylight
26 Aug - 08:24:21 10° SW 08:27:37 71° SE 08:30:54 10° ENE daylight
26 Aug - 10:01:47 10° WNW 10:04:23 21° NNW 10:06:59 10° NNE daylight
26 Aug - 11:40:19 10° NNW 11:41:48 12° N 11:43:17 10° NNE daylight
26 Aug - 13:16:44 10° NNW 13:19:16 20° NNE 13:21:45 10° ENE daylight
26 Aug - 14:52:47 10° NW 14:56:03 80° SW 14:59:18 10° SE daylight
27 Aug - 07:32:24 10° SSW 07:35:25 35° SE 07:38:28 10° ENE daylight
27 Aug - 09:08:58 10° W 09:11:55 30° NNW 09:14:53 10° NE daylight
27 Aug - 10:47:32 10° NW 10:49:12 13° N 10:50:51 10° NNE daylight
27 Aug - 12:24:38 10° NNW 12:26:44 16° NNE 12:28:48 10° NE daylight
27 Aug - 14:00:32 10° NW 14:03:46 54° NNE 14:06:58 10° ESE daylight
27 Aug - 15:37:48 10° W 15:39:57 16° SW 15:42:04 10° S daylight
28 Aug - 06:40:56 10° S 06:43:17 18° SE 06:45:39 10° E daylight
28 Aug - 08:16:20 10° WSW 08:19:32 49° NNW 08:22:44 10° NE daylight
28 Aug - 09:54:35 10° NW 09:56:36 15° NNW 09:58:38 10° NNE daylight
28 Aug - 11:32:25 10° NNW 11:34:08 13° N 11:35:50 10° NE daylight
28 Aug - 13:08:23 10° NW 13:11:23 32° NNE 13:14:22 10° E daylight
28 Aug - 14:44:53 10° WNW 14:47:50 31° SW 14:50:45 10° SSE daylight
29 Aug - 07:23:55 10° SW 07:27:12 89° SE 07:30:30 10° NE daylight
29 Aug - 09:01:35 10° WNW 09:04:03 19° NNW 09:06:30 10° NNE daylight
29 Aug - 10:40:01 10° NNW 10:41:30 12° N 10:43:00 10° NNE daylight
29 Aug - 12:16:15 10° NNW 12:18:55 22° NNE 12:21:33 10° ENE daylight
29 Aug - 13:52:23 10° WNW 13:55:37 62° SW 13:58:50 10° SE daylight
30 Aug - 06:31:47 10° SSW 06:34:56 44° SE 06:38:06 10° ENE daylight
30 Aug - 08:08:41 10° W 08:11:31 26° NNW 08:14:23 10° NE daylight
30 Aug - 09:47:17 10° NNW 09:48:51 13° N 09:50:25 10° NNE daylight
30 Aug - 11:24:07 10° NNW 11:26:22 17° NNE 11:28:36 10° ENE daylight
30 Aug - 13:00:03 10° NW 13:03:19 67° NE 13:06:34 10° ESE daylight
30 Aug - 14:37:48 10° W 14:39:24 13° SW 14:41:00 10° SSW daylight
31 Aug - 05:40:05 10° S 05:42:44 23° SE 05:45:25 10° E visible
31 Aug - 07:15:56 10° WSW 07:19:04 40° NNW 07:22:13 10° NE daylight
31 Aug - 08:54:19 10° NW 08:56:13 14° N 08:58:07 10° NNE daylight
31 Aug - 10:31:55 10° NNW 10:33:45 14° N 10:35:34 10° NE daylight
31 Aug - 12:07:49 10° NW 12:10:56 38° NNE 12:14:00 10° E daylight
31 Aug - 13:44:32 10° WNW 13:47:16 25° SW 13:50:00 10° S daylight
01 Sep - 04:49:15 10° SSE 04:50:37 12° SE 04:51:59 10° ESE visible
01 Sep - 06:23:23 10° WSW 06:26:40 73° NW 06:29:58 10° NE daylight
01 Sep - 08:01:17 10° WNW 08:03:36 17° NNW 08:05:55 10° NNE daylight
01 Sep - 09:39:32 10° NNW 09:41:06 13° N 09:42:38 10° NNE daylight
01 Sep - 11:15:39 10° NW 11:18:26 25° NNE 11:21:13 10° E daylight
01 Sep - 12:51:53 10° WNW 12:55:04 48° SW 12:58:13 10° SE daylight
